www.pogodaiklimat.ru

Погода и климат >> Архив погоды >> Австралия >> Квинсленд >> Бердсвилл


ПОГОДА в Бердсвилле

  • Прогноз погоды в Бердсвилле
  • Монитор погоды в Бердсвилле

АРХИВ ПОГОДЫ в Бердсвилле

Время (UTC), дата Ветер
(напр.,м/с)
 
Видим.   Явления Облачность Т
(С)
Тd
(С)
f
(%)
Тe
(С)
Тes
(С)
Комфортность P
(гПа)
Po
(гПа)
Тmin
(С)
Tmax
(С)
R
(мм)
R24
(мм)
S
(см)
11 15.01 В 3 н/о н/о +39.6 +8.1 15 +37 +37 очень
жарко
1006.3 1001.1
12 15.01 СВ 3 н/о н/о +37.4 +8.2 17 +35 +35 очень
жарко
1006.8 1001.6
14 15.01 СВ 4 н/о н/о +35.8 +7.8 18 +34 +34 очень
жарко
1007.0 1001.8 +45.3
15 15.01 СВ 3 н/о н/о +33.2 +6.5 19 +31 +31 жарко 1006.7 1001.5
17 15.01 СВ 3 н/о н/о +31.1 +6.9 22 +30 +30 жарко 1006.2 1001.0
18 15.01 СВ 2 н/о н/о +30.3 +6.9 23 +29 +29 жарко 1006.4 1001.2
20 15.01 СВ 3 н/о н/о +28.7 +6.1 24 +28 +28 жарко 1007.4 1002.2
21 15.01 СВ 3 н/о н/о +29.8 +5.8 22 +28 +28 жарко 1008.3 1003.1
23 15.01 С 9 н/о н/о +38.8 +12.5 21 +38 +38 очень
жарко
1008.9 1003.7
00 16.01 С 7 н/о н/о +41.2 +11.3 17 +40 +40 очень
жарко
1008.9 1003.7
02 16.01 СВ 6 н/о н/о +41.7 +9.8 15 +40 +40 очень
жарко
1008.2 1003.0 +28.5
03 16.01 В 6 н/о н/о +42.6 +8.4 13 +41 +41 опасность
перегрева
1007.2 1002.0
05 16.01 СВ 7 н/о н/о +44.2 +8.4 12 +42 +42 опасность
перегрева
1005.4 1000.2
06 16.01 СВ 8 н/о н/о +44.4 +8.6 12 +42 +42 опасность
перегрева
1004.6 999.4
08 16.01 СВ 5 н/о н/о +43.3 +7.7 12 +41 +41 опасность
перегрева
1004.1 998.9
09 16.01 СВ 8 н/о н/о +42.3 +5.7 11 +40 +40 очень
жарко
1004.5 999.3
11 16.01 СВ 3 н/о н/о +38.1 +7.0 15 +36 +36 очень
жарко
1005.7 1000.5
12 16.01 С 3 н/о н/о +36.5 +5.7 15 +34 +34 очень
жарко
1006.1 1000.9
14 16.01 СВ 3 н/о н/о +34.5 +5.9 17 +32 +32 жарко 1006.2 1001.0 +45.4
15 16.01 С 4 н/о н/о +33.3 +6.6 19 +31 +31 жарко 1006.0 1000.8
17 16.01 СЗ 4 н/о н/о +32.6 +7.4 21 +31 +31 жарко 1005.3 1000.1
18 16.01 С 3 н/о н/о +31.1 +6.9 22 +30 +30 жарко 1005.0 999.8
20 16.01 С 2 н/о н/о +29.4 +6.1 23 +28 +28 жарко 1005.6 1000.4
21 16.01 С 2 н/о н/о +30.7 +7.8 24 +30 +30 жарко 1006.2 1001.0
23 16.01 С 6 н/о н/о +40.2 +5.4 12 +37 +37 очень
жарко
1007.1 1001.9
00 17.01 С 6 н/о н/о +41.3 +4.9 11 +38 +38 очень
жарко
1007.1 1001.9
02 17.01 СЗ 2 н/о н/о +43.3 +6.5 11 +41 +41 опасность
перегрева
1006.3 1001.1 +29.5
03 17.01 С 5 н/о н/о +44.7 +7.5 11 +42 +42 опасность
перегрева
1005.1 999.9
05 17.01 С 6 н/о н/о +45.0 +7.7 11 +43 +43 опасность
перегрева
1003.4 998.2
06 17.01 В 5 н/о н/о +45.0 +6.4 10 +42 +42 опасность
перегрева
1002.7 997.5
08 17.01 В 5 н/о н/о +44.9 +7.7 11 +43 +43 опасность
перегрева
1002.0 996.8
09 17.01 В 4 н/о н/о +43.9 +8.2 12 +42 +42 опасность
перегрева
1002.4 997.2
11 17.01 штиль 0 н/о н/о +41.0 +8.2 14 +39 +39 очень
жарко
1003.3 998.1
12 17.01 штиль 0 н/о н/о +38.7 +8.4 16 +37 +37 очень
жарко
1003.7 998.5
14 17.01 С 3 н/о н/о +36.1 +7.2 17 +34 +34 очень
жарко
1003.5 998.3 +46.5
15 17.01 СЗ 4 н/о н/о +35.5 +8.3 19 +34 +34 очень
жарко
1002.9 997.7
17 17.01 СЗ 3 н/о н/о +34.0 +9.3 22 +33 +33 жарко 1002.2 997.0
18 17.01 С 3 н/о н/о +32.8 +8.3 22 +31 +31 жарко 1002.4 997.2
20 17.01 СВ 10 н/о н/о +35.5 +10.5 22 +35 +35 очень
жарко
1004.5 999.3
21 17.01 СВ 10 н/о н/о +36.1 +11.0 22 +35 +35 очень
жарко
1005.4 1000.2
23 17.01 С 11 н/о н/о +39.8 +10.2 17 +38 +38 очень
жарко
1006.3 1001.1
00 18.01 С 11 н/о н/о +41.1 +10.3 16 +40 +40 очень
жарко
1006.0 1000.8
02 18.01 С 8 н/о н/о +43.8 +9.3 13 +42 +42 опасность
перегрева
1005.6 1000.4 +32.9
03 18.01 СЗ 4 н/о н/о +43.8 +9.3 13 +42 +42 опасность
перегрева
1005.0 999.8
05 18.01 С 5 н/о н/о +44.9 +8.9 12 +43 +43 опасность
перегрева
1003.8 998.6
06 18.01 ЮЗ 2 н/о н/о +45.1 +9.1 12 +43 +43 опасность
перегрева
1003.3 998.1
08 18.01 С 4 н/о н/о +44.8 +10.1 13 +43 +43 опасность
перегрева
1003.2 998.0
09 18.01 СВ 4 н/о н/о +43.9 +9.4 13 +42 +42 опасность
перегрева
1003.8 998.6
11 18.01 СВ 3 н/о н/о +40.2 +9.6 16 +39 +39 очень
жарко
1005.2 1000.0
12 18.01 СВ 3 н/о н/о +38.6 +8.3 16 +37 +37 очень
жарко
1005.6 1000.4
14 18.01 СВ 2 н/о н/о +36.2 +8.9 19 +35 +35 очень
жарко
1006.4 1001.2 +46.7
15 18.01 ЮВ 5 н/о н/о +38.5 +10.8 19 +37 +37 очень
жарко
1006.8 1001.6
17 18.01 СВ 4 н/о н/о +36.2 +11.8 23 +36 +36 очень
жарко
1007.0 1001.8
18 18.01 СВ 2 н/о н/о +34.2 +10.7 24 +34 +34 очень
жарко
1007.2 1002.0
20 18.01 С 1 н/о н/о +32.1 +10.2 26 +32 +32 жарко 1008.8 1003.6
21 18.01 В 2 н/о н/о +33.1 +10.4 25 +33 +33 жарко 1009.4 1004.2
23 18.01 С 7 н/о н/о +38.1 +10.5 19 +37 +37 очень
жарко
1010.3 1005.1
00 19.01 С 6 н/о н/о +39.7 +10.1 17 +38 +38 очень
жарко
1010.3 1005.1
02 19.01 СВ 5 н/о н/о +42.5 +9.4 14 +41 +41 опасность
перегрева
1009.7 1004.5 +31.3
03 19.01 В 3 н/о н/о +43.7 +10.3 14 +42 +42 опасность
перегрева
1009.1 1003.9
05 19.01 В 5 н/о н/о +44.5 +8.6 12 +43 +43 опасность
перегрева
1007.7 1002.5
06 19.01 В 4 н/о н/о +45.2 +7.9 11 +43 +43 опасность
перегрева
1006.9 1001.7
08 19.01 В 6 н/о н/о +45.0 +7.7 11 +43 +43 опасность
перегрева
1006.1 1000.9
09 19.01 В 6 н/о н/о +44.2 +8.4 12 +42 +42 опасность
перегрева
1006.3 1001.1
11 19.01 В 2 н/о н/о +41.2 +8.4 14 +39 +39 очень
жарко
1007.5 1002.3
12 19.01 В 4 н/о н/о +41.0 +8.2 14 +39 +39 очень
жарко
1008.1 1002.9
14 19.01 ЮВ 6 н/о н/о +38.8 +12.5 21 +38 +38 очень
жарко
1008.8 1003.6 +46.4
15 19.01 ЮВ 5 н/о н/о +37.9 +12.5 22 +38 +38 очень
жарко
1008.6 1003.4
17 19.01 ЮВ 4 н/о н/о +35.9 +12.2 24 +36 +36 очень
жарко
1007.8 1002.6
18 19.01 ЮВ 4 н/о н/о +34.9 +12.0 25 +35 +35 очень
жарко
1007.9 1002.7
20 19.01 ЮВ 3 н/о н/о +33.6 +12.0 27 +34 +34 очень
жарко
1009.1 1003.9
21 19.01 ЮВ 2 н/о н/о +34.0 +12.4 27 +34 +34 очень
жарко
1009.8 1004.6
23 19.01 ЮВ 6 н/о н/о +38.5 +12.3 21 +38 +38 очень
жарко
1010.5 1005.3
00 20.01 СВ 5 н/о н/о +40.5 +11.6 18 +40 +40 очень
жарко
1010.4 1005.2
02 20.01 С 4 н/о н/о +42.9 +8.6 13 +41 +41 опасность
перегрева
1009.5 1004.3 +33.5
03 20.01 С 3 н/о н/о +43.7 +9.2 13 +42 +42 опасность
перегрева
1008.7 1003.5
05 20.01 В 5 н/о н/о +44.0 +8.3 12 +42 +42 опасность
перегрева
1007.3 1002.1
06 20.01 В 4 н/о н/о +44.4 +8.6 12 +42 +42 опасность
перегрева
1006.6 1001.4
08 20.01 В 5 н/о н/о +44.4 +9.8 13 +43 +43 опасность
перегрева
1005.7 1000.5
09 20.01 В 6 н/о н/о +43.7 +9.2 13 +42 +42 опасность
перегрева
1006.1 1000.9
11 20.01 СВ 4 н/о н/о +40.8 +9.1 15 +39 +39 очень
жарко
1007.6 1002.4
12 20.01 СВ 5 н/о н/о +38.8 +9.4 17 +37 +37 очень
жарко
1007.9 1002.7
14 20.01 СВ 3 н/о н/о +35.5 +7.6 18 +34 +34 очень
жарко
1008.0 1002.8 +45.8
15 20.01 С 3 н/о н/о +35.7 +6.0 16 +33 +33 жарко 1007.8 1002.6
17 20.01 СЗ 3 н/о н/о +35.1 +5.5 16 +33 +33 жарко 1007.7 1002.5
18 20.01 С 2 н/о н/о +33.6 +6.0 18 +31 +31 жарко 1007.5 1002.3
20 20.01 штиль 0 н/о н/о +30.5 +5.0 20 +29 +29 жарко 1008.6 1003.4
21 20.01 штиль 0 н/о н/о +30.5 +6.4 22 +29 +29 жарко 1009.3 1004.1
23 20.01 СВ 5 н/о н/о +36.4 +6.6 16 +34 +34 очень
жарко
1010.2 1005.0
00 21.01 С 6 н/о н/о +38.3 +8.1 16 +36 +36 очень
жарко
1010.3 1005.1
02 21.01 С 4 н/о н/о +41.9 +7.8 13 +40 +40 очень
жарко
1009.3 1004.1 +30.5
03 21.01 С 4 н/о н/о +41.5 +6.4 12 +39 +39 очень
жарко
1008.3 1003.1
05 21.01 С 4 н/о н/о +42.9 +6.2 11 +40 +40 очень
жарко
1006.9 1001.7
06 21.01 В 6 н/о н/о +44.5 +7.4 11 +42 +42 опасность
перегрева
1006.4 1001.2
08 21.01 СВ 6 н/о н/о +43.1 +6.3 11 +40 +40 очень
жарко
1005.8 1000.6
09 21.01 СВ 4 н/о н/о +42.8 +7.3 12 +40 +40 очень
жарко
1006.1 1000.9
11 21.01 СВ 3 н/о н/о +39.6 +7.1 14 +37 +37 очень
жарко
1007.2 1002.0
12 21.01 С 3 н/о н/о +38.1 +7.0 15 +36 +36 очень
жарко
1007.6 1002.4
14 21.01 С 3 н/о н/о +36.1 +7.2 17 +34 +34 очень
жарко
1007.4 1002.2 +45.3
15 21.01 С 4 н/о н/о +35.6 +8.4 19 +34 +34 очень
жарко
1007.2 1002.0
17 21.01 С 6 н/о н/о +35.5 +9.8 21 +34 +34 очень
жарко
1006.5 1001.3
18 21.01 С 4 н/о н/о +34.2 +9.4 22 +33 +33 жарко 1006.7 1001.5
20 21.01 С 2 н/о н/о +32.3 +10.4 26 +32 +32 жарко 1008.2 1003.0
21 21.01 С 3 н/о н/о +32.2 +9.1 24 +31 +31 жарко 1008.8 1003.6
23 21.01 С 9 н/о н/о +37.5 +12.2 22 +37 +37 очень
жарко
1009.9 1004.7
00 22.01 С 8 н/о н/о +39.5 +12.4 20 +39 +39 очень
жарко
1010.0 1004.8
02 22.01 СВ 6 н/о н/о +42.1 +12.0 17 +41 +41 опасность
перегрева
1008.9 1003.7 +32.2
03 22.01 С 5 н/о н/о +42.9 +11.7 16 +42 +42 опасность
перегрева
1008.1 1002.9
05 22.01 С 5 н/о н/о +43.1 +10.9 15 +42 +42 опасность
перегрева
1006.6 1001.4
06 22.01 В 5 н/о н/о +44.2 +10.7 14 +43 +43 опасность
перегрева
1006.0 1000.8
08 22.01 В 4 н/о н/о +43.9 +10.5 14 +43 +43 опасность
перегрева
1005.2 1000.0
09 22.01 В 4 н/о н/о +43.1 +10.9 15 +42 +42 опасность
перегрева
1005.5 1000.3

 

Местоположение метеостанции Бердсвилл (Квинсленд, Австралия): широта -25.90 долгота 139.35 высота над уровнем моря 47 м.

В архиве по умолчанию представлена погода в Бердсвилле за последнюю неделю. Архивные данные за месяц целиком и за предыдущие месяцы, начиная с января 2011 года, Вы можете получить, выбрав интересующий диапазон дат из раскрывающегося списка и нажав кнопку "Ввод!".


*Определитесь, кто Вы:
робот инопланетянин человек

Внимание! Время в таблицах - всемирное. Для получения местного времени необходимо прибавить поправку, которая равна 10 ч.

Смотрите также архив погоды в соседних городах и на ближайших метеорологических станциях:

Погода в Мумбе (Южная Австралия, Австралия) (259 км)
Погода в Месторождении Ballera (Квинсленд, Австралия) (298 км)
Погода в Однадатте (Южная Австралия, Австралия) (429 км)
Погода в Марри (Южная Австралия, Австралия) (437 км)
Погода в Фосфат-Хилл (Квинсленд, Австралия) (460 км)
Погода в Джервойсе (Северная территория, Австралия) (461 км)
Погода в Тибообере (Новый Южный Уэльс, Австралия) (476 км)
Погода в Аэропорту Трепелл (Квинсленд, Австралия) (479 км)
Погода в Таргоминде (Квинсленд, Австралия) (499 км)
Погода в Ли-Крике (Южная Австралия, Австралия) (531 км)

Пояснения к столбцам:

Ветер - указаны скорость ветра в м/с - средняя за 10 мин, порывы в срок и между сроками (в фигурных скобках) и направление, откуда дует ветер: С - северный, СВ - северо-восточный, В - восточный, ЮВ - юго-восточный, Ю - южный, ЮЗ - юго-западный, З - западный, СЗ - северо-западный.
Видимость - горизонтальная дальность видимости в метрах или километрах. При видимости от 1 до 10 км при отсутствии осадков обычно наблюдается дымка, при ухудшении видимости до 1 км и менее - туман. В сухую погоду видимость может ухудшаться дымом, пылью или мглою.
Явления - указаны атмосферные явления, наблюдавшиеся в срок или в последний час перед сроком; фигурными скобками обозначены явления, наблюдавшиеся между сроками (за 1-3 часа до срока); квадратными скобками обозначены град или гололедные отложения с указанием их диаметра в мм.
Облачность - указаны через наклонную черту общая и нижняя облачность в баллах и высота нижней границы облаков в метрах; квадратными скобками обозначены формы облаков: Ci - перистые, Cs - перисто-слоистые, Cc - перисто-кучевые, Ac - высококучевые, As - высокослоистые, Sc - слоисто-кучевые, Ns - слоисто-дождевые, Cu - кучевые, Cb - кучево-дождевые. Подробнее классификацию облаков см. в Атласе облаков (PDF).
T - Температура воздуха - температура, измеренная на высоте 2 м над землей.
Td - Температура точки росы - температура, при понижении до которой содержащийся в воздухе водяной пар достигнет насыщения.
f - Относительная влажность воздуха - влажноcть воздуха, измеренная на высоте 2 м над землей.
Te - Эффективная температура - температура, которую ощущает одетый по сезону человек в тени. Характеристика душности погоды. При расчете учитывается влияние влажности воздуха и скорости ветра на теплоощущения человека.
Tes - Эффективная температура на солнце - температура, которую ощущает человек, с поправкой на солнечный нагрев. Характеристика знойности погоды. Зависит от высоты солнца над горизонтом, облачности и скорости ветра. Ночью, в пасмурную погоду, а также при ветре 12 м/с и более поправка равна нулю.
P - Атмосферное давление - приведенное к уровню моря атмосферное давление.
Po - Атмосферное давление - измеренное на уровне метеостанции атмосферное давление.
Tmin - Минимальная температура - минимум температуры воздуха на высоте 2 м над землей.
Tmax - Максимальная температура - максимум температуры воздуха на высоте 2 м над землей.
R - Количество осадков - Количество выпавших осадков за период времени, мм. При наведении курсора мыши на число - период времени, за который выпало указанное количество осадков.
R24 - Количество осадков - Количество выпавших осадков за 24 часа, мм.
S - Снежный покров - Высота снежного покрова, см. При наведении курсора мыши на число - состояние снежного покрова и степень покрытия местности в баллах.